sat.trackr.live / text

‹ back to catalog

ZHONGXING-6D

NORAD 52255 · 2022-038A

PAYLOAD ACTIVE UNKNOWN

§ Identity

Operator
Country
PRC
Launch date
2022-04-15
Launch site
XICLF
Launch vehicle
Mass (kg)
RCS (m²)

Purposes: comms

External: N2YO · Heavens-Above · Gunter

§ Orbital elements

Epoch: 2026-09-19T15:46:03.484992Z

Period
1,436.07 min
Inclination
0.0352°
Eccentricity
0.0002546
Mean motion
1.00273743 rev/d
Perigee alt
35,775.3 km
Apogee alt
35,796.8 km
Semi-major
42,164.2 km
B*
0.0000e+0
RAAN
195.0245°
Arg perigee
25.1478°
Mean anomaly
139.8089°
Rev number
1,636

§ Raw data

ZHONGXING-6D1 52255U 22038A   26262.65698478  .00000000  00000+0  00000+0 0  99932 52255   0.0352 195.0245 0002546  25.1478 139.8089  1.00273743 16362

JSON: /api/v1/satellites/52255 · /tle

For live sub-satellite position, see the globe view (requires WebGL).

§ Visibility from observer

Set your observer location to see the next 7 days of passes ≥ 10°. The values pass through the URL so the page stays shareable.

No JS? Fill the form by hand. The geolocation button needs JavaScript.